#timestamp,LO_Frequency,Hit,StdDev 
1588655055.6,286047003.9,P
1588655075.4,286046999.9,N
1588655095.3,286047000.8,N
1588655115.1,286046999.1,N
1588655135.8,286046995.4,N
1588655155.7,286046996.0,N
1588655175.5,286046996.0,N
1588655195.4,286046995.1,N
1588655215.2,286046997.8,N
1588655235.0,286046998.0,N
1588655235.9,286046998.0,N
1588655255.8,286046994.9,N
1588655275.6,286046996.8,N
1588655295.4,286046999.6,N
1588655315.3,286047001.2,N
1588655335.1,286047000.9,N
1588655355.9,286047000.7,N
1588655375.7,286046999.5,N
1588655395.5,286046996.9,N
1588655415.4,286046998.2,N
1588655435.2,286046998.2,N
1588655455.0,286046998.8,N
1588655456.0,286046998.8,N
1588655475.8,286046997.3,N
1588655495.6,286046997.0,N
1588655515.5,286046997.1,N
1588655535.3,286046997.4,N
1588655555.1,286046997.4,N
1588655575.9,286046998.0,N
1588655595.7,286047011.9,Y
1588655615.6,286046998.2,P
1588655635.4,286046998.8,P
1588655655.2,286046994.5,P
1588655675.1,286046990.5,Y
1588655676.0,286046990.5,P
1588655695.8,286046991.7,N
1588655715.6,286046989.7,P
1588655735.5,286046987.3,Y
1588655755.3,286046993.7,P
1588655775.2,286046994.7,P
1588655795.9,286046994.5,P
1588655815.7,286046994.6,Y
1588655835.6,286047000.3,P
1588655855.4,286047001.2,N
1588655875.3,286047000.6,N
1588655895.1,286047000.9,N
1588655896.0,286047000.9,N
1588655915.8,286046999.3,N
1588655935.7,286046999.0,N
1588655955.5,286046999.5,N
1588655975.3,286046999.6,N
1588655995.2,286046995.3,N
1588656015.0,286046996.4,N
1588656015.9,286046996.4,N
1588656035.8,286046993.8,N
1588656055.6,286046993.6,N
1588656075.4,286046994.0,N
1588656095.3,286046995.2,N
1588656115.1,286046995.3,N
1588656135.9,286046995.2,N
1588656155.7,286046995.0,N
1588656175.5,286046995.9,N
1588656195.4,286046996.0,N
1588656215.2,286046997.8,N
1588656235.0,286046996.5,N
1588656235.9,286046996.5,N
1588656255.8,286046997.0,N
1588656275.6,286046997.8,N
1588656295.5,286046995.0,N
1588656315.3,286046997.5,N
1588656335.1,286046994.9,N
1588656355.9,286046993.8,N
1588656375.7,286046993.6,N
1588656395.5,286046994.6,N
1588656415.4,286046992.1,Y
1588656435.2,286046997.3,P
1588656455.1,286046996.8,P
1588656456.0,286046996.8,P
1588656475.8,286046997.2,Y
1588656495.6,286046998.3,P
1588656515.5,286046998.9,N
1588656535.3,286046996.9,P
1588656555.2,286046996.9,Y
1588656575.9,286046999.1,P
1588656595.7,286046998.9,N
1588656615.6,286046998.6,N
1588656635.4,286046996.6,Y
1588656655.2,286047001.2,P
1588656675.1,286046999.1,N
1588656676.0,286046999.1,N
1588656695.8,286046997.2,N
1588656715.7,286046997.9,N
1588656735.5,286046996.3,N
1588656755.3,286046994.3,Y
1588656775.2,286046996.0,P
1588656795.0,286046993.6,P
1588656795.9,286046993.6,P
1588656815.7,286046994.6,N
1588656835.6,286046993.5,Y
1588656855.4,286046998.8,P
1588656875.3,286046998.5,N
1588656895.1,286046998.5,N
1588656915.8,286046998.3,N
1588656935.7,286046998.9,N
1588656955.5,286046998.6,N
1588656975.3,286046998.4,N
1588656995.2,286046998.7,N
1588657015.0,286046998.8,N
1588657015.9,286046998.8,N
1588657035.8,286046998.8,N
1588657055.6,286046998.7,N
1588657075.4,286047000.0,N
1588657095.3,286047004.4,Y
1588657115.1,286047001.7,P
1588657135.9,286047000.3,N
1588657155.7,286046999.0,N
1588657175.5,286046997.4,N
1588657195.4,286046995.5,Y
1588657215.2,286046995.0,P
1588657235.1,286046997.6,N
1588657236.0,286046997.6,N
1588657255.8,286046998.0,N
1588657275.6,286046997.9,N
1588657295.5,286046993.8,Y
1588657315.3,286046996.9,P
1588657335.1,286046996.9,P
1588657355.9,286046999.5,N
1588657375.7,286046999.4,N
1588657395.6,286046997.1,N
1588657415.4,286046994.9,Y
1588657435.2,286047000.8,P
1588657455.1,286047002.8,N
1588657456.0,286047002.8,N
1588657475.8,286047000.1,N
1588657495.6,286046998.6,N
1588657515.5,286046998.4,N
1588657535.3,286046999.1,N
1588657555.2,286046996.8,N
1588657575.9,286046995.6,N
1588657595.7,286046998.0,N
1588657615.6,286046995.2,N
1588657635.4,286046993.6,N
1588657655.2,286046992.4,N
1588657675.1,286046991.9,N
1588657676.0,286046991.9,N
1588657695.8,286046991.7,N
1588657715.7,286046992.0,N
1588657735.5,286046992.4,N
1588657755.3,286046992.3,N
1588657775.2,286046990.7,N
1588657795